| time (UTC) | temp F | wind direction | speed MPH | gust MPH | rain 1hr in | rain 24hr in | rain mn in | humidity % | barometer mb |
| 20260509075111 | 52 | 210 | 0.0 | 0.0 | 0.00 | 0.00 | 0.00 | 51 | 1002.2 |
| 20260509074607 | 52 | 209 | 0.0 | 0.0 | 0.00 | 0.00 | 0.00 | 50 | 1002.1 |
| 20260509074103 | 52 | 210 | 0.0 | 0.0 | 0.00 | 0.00 | 0.00 | 48 | 1002.1 |
| 20260509073601 | 52 | 210 | 0.0 | 0.0 | 0.00 | 0.00 | 0.00 | 48 | 1002.1 |
| 20260509073057 | 52 | 209 | 0.0 | 0.0 | 0.00 | 0.00 | 0.00 | 50 | 1002.2 |
| 20260509072553 | 51 | 206 | 0.0 | 0.0 | 0.00 | 0.00 | 0.00 | 51 | 1002.1 |
| 20260509072050 | 51 | 206 | 0.0 | 0.0 | 0.00 | 0.00 | 0.00 | 53 | 1002.2 |
| 20260509071547 | 51 | 213 | 1.0 | 2.0 | 0.00 | 0.00 | 0.00 | 51 | 1002.4 |
| 20260509071044 | 51 | 216 | 2.0 | 2.0 | 0.00 | 0.00 | 0.00 | 51 | 1002.4 |
| 20260509070541 | 50 | 211 | 1.0 | 2.0 | 0.00 | 0.00 | 0.00 | 54 | 1002.5 |
| 20260509070032 | 50 | 209 | 1.0 | 1.0 | 0.00 | 0.00 | 0.00 | 52 | 1002.4 |
| 20260509065527 | 51 | 209 | 1.0 | 1.0 | 0.00 | 0.00 | 0.00 | 51 | 1002.4 |
| 20260509065024 | 51 | 209 | 0.0 | 1.0 | 0.00 | 0.00 | 0.00 | 48 | 1002.7 |
| 20260509064521 | 50 | 210 | 1.0 | 1.0 | 0.00 | 0.00 | 0.00 | 50 | 1002.6 |
| 20260509064019 | 50 | 210 | 0.0 | 0.0 | 0.00 | 0.00 | 0.00 | 53 | 1002.6 |
| 20260509063514 | 51 | 211 | 1.0 | 1.0 | 0.00 | 0.00 | 0.00 | 51 | 1002.8 |
| 20260509063012 | 50 | 200 | 0.0 | 0.0 | 0.00 | 0.00 | 0.00 | 52 | 1002.7 |
| 20260509062509 | 50 | 199 | 0.0 | 0.0 | 0.00 | 0.00 | 0.00 | 52 | 1002.7 |
| 20260509062007 | 50 | 199 | 0.0 | 0.0 | 0.00 | 0.00 | 0.00 | 53 | 1002.7 |
| 20260509061504 | 50 | 199 | 0.0 | 0.0 | 0.00 | 0.00 | 0.00 | 54 | 1002.6 |
| 20260509061001 | 50 | 199 | 0.0 | 0.0 | 0.00 | 0.00 | 0.00 | 53 | 1002.8 |
| 20260509060458 | 51 | 199 | 0.0 | 0.0 | 0.00 | 0.00 | 0.00 | 50 | 1002.7 |
| 20260509055954 | 51 | 199 | 0.0 | 0.0 | 0.00 | 0.00 | 0.00 | 51 | 1002.7 |
| 20260509055449 | 51 | 199 | 0.0 | 0.0 | 0.00 | 0.00 | 0.00 | 49 | 1003.0 |
| 20260509054946 | 52 | 199 | 0.0 | 0.0 | 0.00 | 0.00 | 0.00 | 49 | 1003.1 |
| 20260509054442 | 53 | 205 | 1.0 | 1.0 | 0.00 | 0.00 | 0.00 | 48 | 1003.3 |
| 20260509053941 | 52 | 210 | 1.0 | 2.0 | 0.00 | 0.00 | 0.00 | 45 | 1003.3 |
| 20260509053438 | 53 | 209 | 0.0 | 1.0 | 0.00 | 0.00 | 0.00 | 45 | 1003.2 |
| 20260509052935 | 53 | 210 | 1.0 | 1.0 | 0.00 | 0.00 | 0.00 | 45 | 1003.2 |
| 20260509052433 | 54 | 205 | 0.0 | 1.0 | 0.00 | 0.00 | 0.00 | 45 | 1003.1 |
| 20260509051931 | 54 | 202 | 0.0 | 0.0 | 0.00 | 0.00 | 0.00 | 42 | 1003.2 |
| 20260509051428 | 54 | 202 | 0.0 | 0.0 | 0.00 | 0.00 | 0.00 | 43 | 1003.2 |
| 20260509050925 | 56 | 209 | 1.0 | 2.0 | 0.00 | 0.00 | 0.00 | 40 | 1003.5 |
| 20260509050422 | 56 | 203 | 0.0 | 0.0 | 0.00 | 0.00 | 0.00 | 39 | 1003.7 |
| 20260509045919 | 56 | 206 | 0.0 | 0.0 | 0.00 | 0.00 | 0.00 | 39 | 1003.3 |
| 20260509045416 | 56 | 206 | 0.0 | 0.0 | 0.00 | 0.00 | 0.00 | 39 | 1003.6 |
| 20260509044913 | 57 | 205 | 0.0 | 0.0 | 0.00 | 0.00 | 0.00 | 38 | 1003.6 |
| 20260509044410 | 57 | 206 | 0.0 | 0.0 | 0.00 | 0.00 | 0.00 | 37 | 1003.6 |
| 20260509043907 | 58 | 206 | 0.0 | 0.0 | 0.00 | 0.00 | 0.00 | 37 | 1003.5 |
| 20260509043403 | 58 | 206 | 0.0 | 1.0 | 0.00 | 0.00 | 0.00 | 36 | 1003.6 |
| 20260509042859 | 58 | 219 | 1.0 | 2.0 | 0.00 | 0.00 | 0.00 | 35 | 1003.5 |
| 20260509042355 | 59 | 210 | 1.0 | 1.0 | 0.00 | 0.00 | 0.00 | 34 | 1003.7 |
| 20260509041851 | 59 | 209 | 0.0 | 1.0 | 0.00 | 0.00 | 0.00 | 34 | 1003.8 |
| 20260509041343 | 59 | 222 | 2.0 | 3.0 | 0.00 | 0.00 | 0.00 | 33 | 1003.7 |
| 20260509040842 | 59 | 243 | 2.0 | 2.0 | 0.00 | 0.00 | 0.00 | 34 | 1003.8 |
| 20260509040339 | 60 | 211 | 1.0 | 2.0 | 0.00 | 0.00 | 0.00 | 33 | 1003.7 |
| 20260509035836 | 60 | 310 | 3.0 | 3.0 | 0.00 | 0.00 | 0.00 | 33 | 1003.6 |
| 20260509035333 | 60 | 232 | 1.0 | 6.0 | 0.00 | 0.00 | 0.00 | 32 | 1003.6 |
| 20260509034829 | 61 | 264 | 3.0 | 5.0 | 0.00 | 0.00 | 0.00 | 32 | 1003.6 |
| 20260509034327 | 61 | 258 | 2.0 | 5.0 | 0.00 | 0.00 | 0.00 | 32 | 1003.8 |
| 20260509033823 | 61 | 341 | 4.0 | 6.0 | 0.00 | 0.00 | 0.00 | 32 | 1003.8 |
| 20260509033321 | 61 | 244 | 2.0 | 5.0 | 0.00 | 0.00 | 0.00 | 32 | 1003.6 |
| 20260509032817 | 62 | 299 | 3.0 | 7.0 | 0.00 | 0.00 | 0.00 | 32 | 1003.7 |
| 20260509032315 | 62 | 328 | 3.0 | 9.0 | 0.00 | 0.00 | 0.00 | 31 | 1003.6 |
| 20260509031813 | 62 | 298 | 4.0 | 8.0 | 0.00 | 0.00 | 0.00 | 32 | 1003.5 |
| 20260509031310 | 62 | 335 | 3.0 | 5.0 | 0.00 | 0.00 | 0.00 | 33 | 1003.7 |
| 20260509030807 | 62 | 350 | 4.0 | 8.0 | 0.00 | 0.00 | 0.00 | 32 | 1003.4 |
| 20260509030305 | 62 | 272 | 4.0 | 6.0 | 0.00 | 0.00 | 0.00 | 32 | 1003.4 |
| 20260509025801 | 63 | 321 | 4.0 | 5.0 | 0.00 | 0.00 | 0.00 | 33 | 1003.3 |
| 20260509025257 | 63 | 313 | 3.0 | 6.0 | 0.00 | 0.00 | 0.00 | 33 | 1003.2 |
| 20260509024752 | 63 | 291 | 6.0 | 6.0 | 0.00 | 0.00 | 0.00 | 33 | 1003.3 |
| 20260509024249 | 64 | 313 | 4.0 | 7.0 | 0.00 | 0.00 | 0.00 | 32 | 1003.3 |
| 20260509023746 | 64 | 260 | 3.0 | 9.0 | 0.00 | 0.00 | 0.00 | 32 | 1003.2 |
| 20260509023243 | 64 | 323 | 4.0 | 8.0 | 0.00 | 0.00 | 0.00 | 32 | 1003.0 |
| 20260509022739 | 64 | 314 | 3.0 | 6.0 | 0.00 | 0.00 | 0.00 | 32 | 1002.8 |
| 20260509022237 | 64 | 201 | 3.0 | 6.0 | 0.00 | 0.00 | 0.00 | 32 | 1003.0 |
| 20260509021734 | 64 | 330 | 3.0 | 3.0 | 0.00 | 0.00 | 0.00 | 32 | 1003.0 |
| 20260509021231 | 65 | 201 | 3.0 | 5.0 | 0.00 | 0.00 | 0.00 | 31 | 1002.6 |
| 20260509020729 | 65 | 345 | 3.0 | 7.0 | 0.00 | 0.00 | 0.00 | 31 | 1002.6 |
| 20260509020226 | 65 | 353 | 2.0 | 5.0 | 0.00 | 0.00 | 0.00 | 30 | 1002.4 |
| 20260509015724 | 65 | 327 | 5.0 | 6.0 | 0.00 | 0.00 | 0.00 | 30 | 1002.4 |
| 20260509015222 | 65 | 303 | 3.0 | 3.0 | 0.00 | 0.00 | 0.00 | 29 | 1002.3 |
| 20260509014718 | 66 | 324 | 3.0 | 5.0 | 0.00 | 0.00 | 0.00 | 29 | 1002.2 |
| 20260509014215 | 66 | 304 | 4.0 | 5.0 | 0.00 | 0.00 | 0.00 | 28 | 1002.1 |
| 20260509013712 | 66 | 285 | 3.0 | 7.0 | 0.00 | 0.00 | 0.00 | 28 | 1002.1 |
| 20260509013207 | 66 | 289 | 4.0 | 8.0 | 0.00 | 0.00 | 0.00 | 27 | 1001.9 |
| 20260509012704 | 66 | 354 | 5.0 | 7.0 | 0.00 | 0.00 | 0.00 | 27 | 1002.1 |
| 20260509012201 | 66 | 208 | 1.0 | 5.0 | 0.00 | 0.00 | 0.00 | 27 | 1001.9 |
| 20260509011659 | 67 | 222 | 2.0 | 6.0 | 0.00 | 0.00 | 0.00 | 27 | 1001.9 |
| 20260509011156 | 68 | 260 | 2.0 | 5.0 | 0.00 | 0.00 | 0.00 | 26 | 1001.7 |
| 20260509010654 | 68 | 348 | 4.0 | 6.0 | 0.00 | 0.00 | 0.00 | 26 | 1001.7 |
| 20260509010149 | 68 | 265 | 3.0 | 3.0 | 0.00 | 0.00 | 0.00 | 26 | 1001.8 |
| 20260509005647 | 68 | 321 | 4.0 | 6.0 | 0.00 | 0.00 | 0.00 | 26 | 1001.9 |
| 20260509005144 | 68 | 207 | 3.0 | 5.0 | 0.00 | 0.00 | 0.00 | 26 | 1001.7 |
| 20260509004639 | 68 | 263 | 6.0 | 8.0 | 0.00 | 0.00 | 0.00 | 26 | 1001.6 |
| 20260509004137 | 69 | 319 | 6.0 | 10.0 | 0.00 | 0.00 | 0.00 | 26 | 1001.6 |
| 20260509003635 | 69 | 287 | 3.0 | 5.0 | 0.00 | 0.00 | 0.00 | 26 | 1001.7 |
| 20260509003132 | 69 | 341 | 3.0 | 6.0 | 0.00 | 0.00 | 0.00 | 26 | 1001.4 |
| 20260509002629 | 69 | 341 | 3.0 | 11.0 | 0.00 | 0.00 | 0.00 | 26 | 1001.7 |
| 20260509002126 | 69 | 335 | 5.0 | 8.0 | 0.00 | 0.00 | 0.00 | 26 | 1001.7 |
| 20260509001624 | 69 | 331 | 5.0 | 8.0 | 0.00 | 0.00 | 0.00 | 26 | 1001.7 |
| 20260509001119 | 70 | 333 | 4.0 | 7.0 | 0.00 | 0.00 | 0.00 | 26 | 1001.7 |
| 20260509000618 | 70 | 14 | 5.0 | 9.0 | 0.00 | 0.00 | 0.00 | 25 | 1001.7 |
| 20260509000114 | 70 | 258 | 3.0 | 7.0 | 0.00 | 0.00 | 0.00 | 26 | 1001.4 |
| 20260508235612 | 70 | 340 | 5.0 | 7.0 | 0.00 | 0.00 | 0.00 | 25 | 1001.4 |
| 20260508235108 | 71 | 297 | 7.0 | 9.0 | 0.00 | 0.00 | 0.00 | 26 | 1001.6 |
| 20260508234606 | 71 | 297 | 5.0 | 8.0 | 0.00 | 0.00 | 0.00 | 26 | 1001.6 |
| 20260508234102 | 71 | 322 | 3.0 | 8.0 | 0.00 | 0.00 | 0.00 | 27 | 1001.6 |
| 20260508233602 | 71 | 335 | 4.0 | 9.0 | 0.00 | 0.00 | 0.00 | 27 | 1001.7 |
| 20260508233059 | 71 | 317 | 3.0 | 5.0 | 0.00 | 0.00 | 0.00 | 27 | 1001.7 |
| 20260508232556 | 71 | 296 | 4.0 | 6.0 | 0.00 | 0.00 | 0.00 | 26 | 1001.6 |
| 20260508232052 | 71 | 288 | 4.0 | 9.0 | 0.00 | 0.00 | 0.00 | 27 | 1001.7 |
| 20260508231550 | 71 | 327 | 7.0 | 9.0 | 0.00 | 0.00 | 0.00 | 26 | 1001.6 |
| 20260508231047 | 71 | 262 | 3.0 | 9.0 | 0.00 | 0.00 | 0.00 | 26 | 1001.9 |
| 20260508230543 | 71 | 204 | 5.0 | 9.0 | 0.00 | 0.00 | 0.00 | 26 | 1001.7 |
| 20260508230040 | 71 | 199 | 3.0 | 9.0 | 0.00 | 0.00 | 0.00 | 26 | 1001.8 |
| 20260508225537 | 71 | 336 | 4.0 | 7.0 | 0.00 | 0.00 | 0.00 | 26 | 1001.7 |
| 20260508225034 | 71 | 311 | 5.0 | 8.0 | 0.00 | 0.00 | 0.00 | 26 | 1001.7 |
| 20260508224532 | 71 | 289 | 2.0 | 5.0 | 0.00 | 0.00 | 0.00 | 27 | 1001.7 |
| 20260508224029 | 71 | 325 | 2.0 | 9.0 | 0.00 | 0.00 | 0.00 | 27 | 1001.8 |
| 20260508223527 | 71 | 266 | 4.0 | 7.0 | 0.00 | 0.00 | 0.00 | 26 | 1001.7 |
| 20260508223024 | 71 | 299 | 3.0 | 7.0 | 0.00 | 0.00 | 0.00 | 26 | 1001.8 |
| 20260508222521 | 71 | 319 | 5.0 | 7.0 | 0.00 | 0.00 | 0.00 | 27 | 1001.8 |
| 20260508222018 | 71 | 270 | 3.0 | 5.0 | 0.00 | 0.00 | 0.00 | 26 | 1001.8 |
| 20260508221514 | 71 | 265 | 3.0 | 6.0 | 0.00 | 0.00 | 0.00 | 27 | 1002.0 |
| 20260508221010 | 72 | 210 | 2.0 | 6.0 | 0.00 | 0.00 | 0.00 | 27 | 1002.0 |
| 20260508220507 | 71 | 227 | 7.0 | 15.0 | 0.00 | 0.00 | 0.00 | 26 | 1002.1 |
| 20260508220003 | 71 | 255 | 4.0 | 8.0 | 0.00 | 0.00 | 0.00 | 27 | 1001.9 |
| 20260508215500 | 72 | 300 | 4.0 | 5.0 | 0.00 | 0.00 | 0.00 | 26 | 1002.1 |
| 20260508214956 | 72 | 307 | 3.0 | 11.0 | 0.00 | 0.00 | 0.00 | 26 | 1002.0 |
| 20260508214454 | 71 | 285 | 4.0 | 7.0 | 0.00 | 0.00 | 0.00 | 27 | 1002.2 |
| 20260508213950 | 71 | 350 | 5.0 | 6.0 | 0.00 | 0.00 | 0.00 | 25 | 1002.2 |
| 20260508213448 | 71 | 222 | 0.0 | 5.0 | 0.00 | 0.00 | 0.00 | 26 | 1002.2 |
| 20260508212943 | 71 | 280 | 5.0 | 6.0 | 0.00 | 0.00 | 0.00 | 26 | 1002.5 |
| 20260508212440 | 70 | 220 | 2.0 | 7.0 | 0.00 | 0.00 | 0.00 | 26 | 1002.4 |
| 20260508211936 | 71 | 280 | 5.0 | 11.0 | 0.00 | 0.00 | 0.00 | 25 | 1002.6 |
| 20260508211432 | 72 | 260 | 3.0 | 9.0 | 0.00 | 0.00 | 0.00 | 25 | 1002.4 |
| 20260508210929 | 70 | 236 | 4.0 | 9.0 | 0.00 | 0.00 | 0.00 | 25 | 1002.7 |
| 20260508210426 | 70 | 219 | 1.0 | 7.0 | 0.00 | 0.00 | 0.00 | 27 | 1002.8 |
| 20260508205922 | 71 | 267 | 3.0 | 9.0 | 0.00 | 0.00 | 0.00 | 25 | 1002.7 |
| 20260508205419 | 70 | 2 | 5.0 | 8.0 | 0.00 | 0.00 | 0.00 | 25 | 1002.9 |
| 20260508204915 | 71 | 197 | 4.0 | 11.0 | 0.00 | 0.00 | 0.00 | 25 | 1002.9 |
| 20260508204413 | 70 | 273 | 5.0 | 8.0 | 0.00 | 0.00 | 0.00 | 25 | 1003.1 |
| 20260508203908 | 69 | 288 | 3.0 | 6.0 | 0.00 | 0.00 | 0.00 | 25 | 1003.2 |
| 20260508203404 | 69 | 265 | 3.0 | 8.0 | 0.00 | 0.00 | 0.00 | 25 | 1003.3 |
| 20260508202901 | 70 | 230 | 4.0 | 5.0 | 0.00 | 0.00 | 0.00 | 25 | 1003.4 |
| 20260508202358 | 70 | 200 | 2.0 | 8.0 | 0.00 | 0.00 | 0.00 | 25 | 1003.6 |
| 20260508201855 | 69 | 274 | 4.0 | 11.0 | 0.00 | 0.00 | 0.00 | 26 | 1003.8 |
| 20260508201352 | 68 | 357 | 4.0 | 6.0 | 0.00 | 0.00 | 0.00 | 26 | 1003.6 |
| 20260508200848 | 68 | 278 | 7.0 | 10.0 | 0.00 | 0.00 | 0.00 | 25 | 1003.6 |
| 20260508200345 | 68 | 236 | 3.0 | 6.0 | 0.00 | 0.00 | 0.00 | 25 | 1003.8 |
| 20260508195840 | 68 | 37 | 5.0 | 6.0 | 0.00 | 0.00 | 0.00 | 25 | 1003.9 |
| 20260508195338 | 68 | 317 | 6.0 | 10.0 | 0.00 | 0.00 | 0.00 | 26 | 1004.0 |
| 20260508194834 | 69 | 295 | 9.0 | 16.0 | 0.00 | 0.00 | 0.00 | 25 | 1004.1 |
| 20260508194331 | 69 | 327 | 6.0 | 9.0 | 0.00 | 0.00 | 0.00 | 25 | 1003.9 |
| 20260508193828 | 70 | 212 | 3.0 | 8.0 | 0.00 | 0.00 | 0.00 | 24 | 1004.3 |
| 20260508193325 | 69 | 299 | 7.0 | 10.0 | 0.00 | 0.00 | 0.00 | 24 | 1004.2 |
| 20260508192820 | 69 | 206 | 4.0 | 5.0 | 0.00 | 0.00 | 0.00 | 25 | 1004.2 |
| 20260508192318 | 69 | 234 | 3.0 | 7.0 | 0.00 | 0.00 | 0.00 | 25 | 1004.3 |
| 20260508191814 | 69 | 285 | 4.0 | 7.0 | 0.00 | 0.00 | 0.00 | 25 | 1004.3 |
| 20260508191312 | 70 | 280 | 9.0 | 10.0 | 0.00 | 0.00 | 0.00 | 23 | 1004.5 |
| 20260508190804 | 72 | 262 | 6.0 | 11.0 | 0.00 | 0.00 | 0.00 | 23 | 1004.4 |
| 20260508190300 | 69 | 198 | 3.0 | 8.0 | 0.00 | 0.00 | 0.00 | 25 | 1004.4 |
| 20260508185756 | 68 | 280 | 3.0 | 8.0 | 0.00 | 0.00 | 0.00 | 24 | 1004.6 |
| 20260508185254 | 69 | 199 | 2.0 | 10.0 | 0.00 | 0.00 | 0.00 | 25 | 1004.5 |
| 20260508184751 | 69 | 221 | 4.0 | 8.0 | 0.00 | 0.00 | 0.00 | 24 | 1004.6 |
| 20260508184248 | 69 | 345 | 7.0 | 10.0 | 0.00 | 0.00 | 0.00 | 26 | 1004.5 |
| 20260508183745 | 70 | 272 | 6.0 | 11.0 | 0.00 | 0.00 | 0.00 | 24 | 1004.6 |
| 20260508183241 | 69 | 282 | 6.0 | 7.0 | 0.00 | 0.00 | 0.00 | 24 | 1004.8 |
| 20260508182737 | 69 | 213 | 7.0 | 13.0 | 0.00 | 0.00 | 0.00 | 24 | 1004.7 |
| 20260508182234 | 70 | 274 | 3.0 | 10.0 | 0.00 | 0.00 | 0.00 | 23 | 1004.8 |
| 20260508181730 | 69 | 191 | 2.0 | 7.0 | 0.00 | 0.00 | 0.00 | 24 | 1005.0 |
| 20260508181227 | 69 | 209 | 3.0 | 10.0 | 0.00 | 0.00 | 0.00 | 24 | 1005.1 |
| 20260508180724 | 69 | 271 | 5.0 | 8.0 | 0.00 | 0.00 | 0.00 | 26 | 1005.2 |
| 20260508180220 | 68 | 249 | 3.0 | 8.0 | 0.00 | 0.00 | 0.00 | 25 | 1005.4 |
| 20260508175717 | 69 | 242 | 6.0 | 11.0 | 0.00 | 0.00 | 0.00 | 23 | 1005.2 |
| 20260508175214 | 69 | 303 | 3.0 | 10.0 | 0.00 | 0.00 | 0.00 | 24 | 1005.6 |
| 20260508174712 | 68 | 292 | 5.0 | 8.0 | 0.00 | 0.00 | 0.00 | 24 | 1005.8 |
| 20260508174209 | 68 | 242 | 4.0 | 16.0 | 0.00 | 0.00 | 0.00 | 25 | 1005.9 |
| 20260508173705 | 68 | 353 | 4.0 | 8.0 | 0.00 | 0.00 | 0.00 | 24 | 1005.9 |
| 20260508173201 | 68 | 297 | 5.0 | 8.0 | 0.00 | 0.00 | 0.00 | 24 | 1006.2 |
| 20260508172658 | 67 | 220 | 5.0 | 9.0 | 0.00 | 0.00 | 0.00 | 23 | 1006.0 |
| 20260508172155 | 68 | 20 | 6.0 | 9.0 | 0.00 | 0.00 | 0.00 | 24 | 1006.3 |
| 20260508171651 | 68 | 201 | 4.0 | 5.0 | 0.00 | 0.00 | 0.00 | 24 | 1006.4 |
| 20260508171147 | 67 | 266 | 3.0 | 17.0 | 0.00 | 0.00 | 0.00 | 24 | 1006.3 |
| 20260508170645 | 67 | 344 | 4.0 | 8.0 | 0.00 | 0.00 | 0.00 | 25 | 1006.3 |
| 20260508170143 | 67 | 321 | 3.0 | 5.0 | 0.00 | 0.00 | 0.00 | 26 | 1006.5 |
| 20260508165639 | 67 | 207 | 2.0 | 10.0 | 0.00 | 0.00 | 0.00 | 26 | 1006.7 |
| 20260508165136 | 67 | 228 | 4.0 | 10.0 | 0.00 | 0.00 | 0.00 | 26 | 1006.6 |
| 20260508164633 | 66 | 233 | 4.0 | 6.0 | 0.00 | 0.00 | 0.00 | 27 | 1006.7 |
| 20260508164130 | 66 | 315 | 6.0 | 7.0 | 0.00 | 0.00 | 0.00 | 30 | 1006.7 |
| 20260508163627 | 65 | 250 | 3.0 | 7.0 | 0.00 | 0.00 | 0.00 | 29 | 1006.9 |
| 20260508163124 | 63 | 211 | 2.0 | 5.0 | 0.00 | 0.00 | 0.00 | 33 | 1006.9 |
| 20260508162620 | 62 | 191 | 3.0 | 7.0 | 0.00 | 0.00 | 0.00 | 32 | 1007.0 |
| 20260508162118 | 61 | 207 | 6.0 | 6.0 | 0.00 | 0.00 | 0.00 | 34 | 1007.2 |
| 20260508161614 | 61 | 216 | 2.0 | 2.0 | 0.00 | 0.00 | 0.00 | 35 | 1007.2 |
| 20260508161112 | 62 | 200 | 3.0 | 7.0 | 0.00 | 0.00 | 0.00 | 34 | 1007.1 |
| 20260508160610 | 62 | 248 | 4.0 | 8.0 | 0.00 | 0.00 | 0.00 | 33 | 1007.2 |
| 20260508160107 | 62 | 299 | 4.0 | 6.0 | 0.00 | 0.00 | 0.00 | 33 | 1007.5 |
| 20260508155604 | 62 | 227 | 2.0 | 8.0 | 0.00 | 0.00 | 0.00 | 34 | 1007.5 |
| 20260508155101 | 60 | 193 | 1.0 | 6.0 | 0.00 | 0.00 | 0.00 | 35 | 1007.5 |
| 20260508154558 | 59 | 284 | 3.0 | 10.0 | 0.00 | 0.00 | 0.00 | 36 | 1007.4 |
| 20260508154055 | 59 | 289 | 6.0 | 8.0 | 0.00 | 0.00 | 0.00 | 35 | 1007.7 |
| 20260508153552 | 59 | 220 | 6.0 | 8.0 | 0.00 | 0.00 | 0.00 | 35 | 1007.8 |
| 20260508153048 | 58 | 256 | 5.0 | 9.0 | 0.00 | 0.00 | 0.00 | 35 | 1007.6 |
| 20260508152546 | 59 | 246 | 5.0 | 8.0 | 0.00 | 0.00 | 0.00 | 35 | 1007.6 |
| 20260508152040 | 59 | 266 | 3.0 | 5.0 | 0.00 | 0.00 | 0.00 | 36 | 1007.7 |
| 20260508151537 | 59 | 278 | 6.0 | 11.0 | 0.00 | 0.00 | 0.00 | 36 | 1007.7 |
| 20260508151034 | 59 | 236 | 4.0 | 6.0 | 0.00 | 0.00 | 0.00 | 36 | 1007.8 |
| 20260508150532 | 59 | 246 | 2.0 | 6.0 | 0.00 | 0.00 | 0.00 | 38 | 1007.7 |
| 20260508150027 | 59 | 266 | 6.0 | 6.0 | 0.00 | 0.00 | 0.00 | 35 | 1007.9 |
| 20260508145524 | 59 | 214 | 3.0 | 6.0 | 0.00 | 0.00 | 0.00 | 35 | 1007.7 |
| 20260508145020 | 58 | 230 | 2.0 | 5.0 | 0.00 | 0.00 | 0.00 | 37 | 1007.9 |
| 20260508144518 | 58 | 207 | 6.0 | 9.0 | 0.00 | 0.00 | 0.00 | 36 | 1007.9 |
| 20260508144015 | 58 | 251 | 4.0 | 7.0 | 0.00 | 0.00 | 0.00 | 38 | 1008.1 |
| 20260508143513 | 57 | 241 | 4.0 | 5.0 | 0.00 | 0.00 | 0.00 | 38 | 1007.8 |
| 20260508143009 | 57 | 197 | 1.0 | 5.0 | 0.00 | 0.00 | 0.00 | 37 | 1008.0 |
| 20260508142507 | 56 | 228 | 3.0 | 6.0 | 0.00 | 0.00 | 0.00 | 37 | 1008.1 |
| 20260508142003 | 56 | 209 | 1.0 | 5.0 | 0.00 | 0.00 | 0.00 | 38 | 1008.3 |
| 20260508141459 | 55 | 256 | 4.0 | 7.0 | 0.00 | 0.00 | 0.00 | 38 | 1008.2 |
| 20260508140957 | 55 | 231 | 4.0 | 6.0 | 0.00 | 0.00 | 0.00 | 38 | 1008.2 |
| 20260508140454 | 55 | 220 | 3.0 | 8.0 | 0.00 | 0.00 | 0.00 | 37 | 1008.1 |
| 20260508135949 | 55 | 203 | 4.0 | 7.0 | 0.00 | 0.00 | 0.00 | 37 | 1008.0 |
| 20260508135446 | 55 | 225 | 2.0 | 5.0 | 0.00 | 0.00 | 0.00 | 38 | 1008.0 |
| 20260508134943 | 55 | 250 | 4.0 | 6.0 | 0.00 | 0.00 | 0.00 | 38 | 1008.2 |
| 20260508134439 | 55 | 268 | 5.0 | 10.0 | 0.00 | 0.00 | 0.00 | 38 | 1008.0 |
| 20260508133936 | 54 | 268 | 5.0 | 7.0 | 0.00 | 0.00 | 0.00 | 37 | 1008.1 |
| 20260508133434 | 54 | 210 | 2.0 | 5.0 | 0.00 | 0.00 | 0.00 | 39 | 1008.4 |
| 20260508132930 | 54 | 230 | 4.0 | 5.0 | 0.00 | 0.00 | 0.00 | 39 | 1008.3 |
| 20260508132429 | 54 | 261 | 4.0 | 6.0 | 0.00 | 0.00 | 0.00 | 38 | 1008.4 |
| 20260508131925 | 54 | 223 | 4.0 | 6.0 | 0.00 | 0.00 | 0.00 | 38 | 1008.4 |
| 20260508131420 | 54 | 221 | 5.0 | 7.0 | 0.00 | 0.00 | 0.00 | 39 | 1008.5 |
| 20260508130917 | 53 | 225 | 4.0 | 6.0 | 0.00 | 0.00 | 0.00 | 39 | 1008.5 |
| 20260508130414 | 52 | 199 | 4.0 | 8.0 | 0.00 | 0.00 | 0.00 | 40 | 1008.5 |
| 20260508125910 | 52 | 209 | 3.0 | 6.0 | 0.00 | 0.00 | 0.00 | 41 | 1008.4 |
| 20260508125406 | 51 | 196 | 1.0 | 7.0 | 0.00 | 0.00 | 0.00 | 42 | 1008.5 |
| 20260508124904 | 51 | 210 | 5.0 | 7.0 | 0.00 | 0.00 | 0.00 | 41 | 1008.4 |
| 20260508124402 | 50 | 215 | 3.0 | 6.0 | 0.00 | 0.00 | 0.00 | 42 | 1008.5 |
| 20260508123859 | 50 | 220 | 3.0 | 6.0 | 0.00 | 0.00 | 0.00 | 42 | 1008.6 |
| 20260508123358 | 50 | 218 | 4.0 | 6.0 | 0.00 | 0.00 | 0.00 | 42 | 1008.5 |
| 20260508122854 | 49 | 217 | 4.0 | 6.0 | 0.00 | 0.00 | 0.00 | 41 | 1008.5 |
| 20260508122351 | 49 | 218 | 3.0 | 6.0 | 0.00 | 0.00 | 0.00 | 43 | 1008.4 |
| 20260508121848 | 48 | 246 | 4.0 | 6.0 | 0.00 | 0.00 | 0.00 | 43 | 1008.6 |
| 20260508121346 | 47 | 211 | 2.0 | 3.0 | 0.00 | 0.00 | 0.00 | 44 | 1008.4 |
| 20260508120843 | 47 | 205 | 2.0 | 5.0 | 0.00 | 0.00 | 0.00 | 44 | 1008.3 |
| 20260508120341 | 46 | 208 | 2.0 | 3.0 | 0.00 | 0.00 | 0.00 | 46 | 1008.0 |
| 20260508115838 | 46 | 197 | 1.0 | 5.0 | 0.00 | 0.00 | 0.00 | 47 | 1008.3 |
| 20260508115336 | 45 | 210 | 2.0 | 5.0 | 0.00 | 0.00 | 0.00 | 48 | 1008.1 |
| 20260508114832 | 44 | 210 | 2.0 | 3.0 | 0.00 | 0.00 | 0.00 | 50 | 1008.4 |
| 20260508114330 | 44 | 205 | 0.0 | 2.0 | 0.00 | 0.00 | 0.00 | 50 | 1008.2 |
| 20260508113826 | 43 | 205 | 0.0 | 1.0 | 0.00 | 0.00 | 0.00 | 51 | 1008.3 |
| 20260508113324 | 43 | 204 | 0.0 | 0.0 | 0.00 | 0.00 | 0.00 | 52 | 1008.2 |
| 20260508112820 | 43 | 207 | 0.0 | 0.0 | 0.00 | 0.00 | 0.00 | 52 | 1008.4 |
| 20260508112318 | 42 | 207 | 0.0 | 0.0 | 0.00 | 0.00 | 0.00 | 53 | 1008.4 |
| 20260508111814 | 42 | 205 | 0.0 | 1.0 | 0.00 | 0.00 | 0.00 | 52 | 1008.2 |
| 20260508111311 | 43 | 210 | 0.0 | 1.0 | 0.00 | 0.00 | 0.00 | 51 | 1008.4 |
| 20260508110809 | 43 | 208 | 1.0 | 1.0 | 0.00 | 0.00 | 0.00 | 51 | 1008.2 |
| 20260508110306 | 43 | 208 | 1.0 | 1.0 | 0.00 | 0.00 | 0.00 | 51 | 1008.2 |
| 20260508105805 | 43 | 222 | 1.0 | 2.0 | 0.00 | 0.00 | 0.00 | 51 | 1008.3 |
| 20260508105305 | 43 | 208 | 1.0 | 1.0 | 0.00 | 0.00 | 0.00 | 51 | 1008.4 |
| 20260508104759 | 43 | 210 | 1.0 | 1.0 | 0.00 | 0.00 | 0.00 | 51 | 1008.2 |
| 20260508104256 | 43 | 214 | 2.0 | 2.0 | 0.00 | 0.00 | 0.00 | 50 | 1008.2 |
| 20260508103754 | 43 | 214 | 1.0 | 2.0 | 0.00 | 0.00 | 0.00 | 51 | 1008.4 |
| 20260508103250 | 43 | 202 | 0.0 | 1.0 | 0.00 | 0.00 | 0.00 | 52 | 1008.2 |
| 20260508102748 | 43 | 203 | 0.0 | 1.0 | 0.00 | 0.00 | 0.00 | 51 | 1008.4 |
| 20260508102246 | 43 | 203 | 0.0 | 0.0 | 0.00 | 0.00 | 0.00 | 52 | 1008.4 |
| 20260508101743 | 43 | 206 | 1.0 | 2.0 | 0.00 | 0.00 | 0.00 | 50 | 1008.4 |
| 20260508101240 | 44 | 207 | 1.0 | 1.0 | 0.00 | 0.00 | 0.00 | 49 | 1008.3 |
| 20260508100738 | 44 | 207 | 0.0 | 1.0 | 0.00 | 0.00 | 0.00 | 48 | 1008.4 |
| 20260508100236 | 44 | 213 | 1.0 | 2.0 | 0.00 | 0.00 | 0.00 | 47 | 1008.5 |
| 20260508095731 | 45 | 211 | 1.0 | 3.0 | 0.00 | 0.00 | 0.00 | 47 | 1008.4 |
| 20260508095229 | 45 | 220 | 3.0 | 3.0 | 0.00 | 0.00 | 0.00 | 46 | 1008.3 |
| 20260508094726 | 45 | 209 | 1.0 | 3.0 | 0.00 | 0.00 | 0.00 | 46 | 1008.3 |
| 20260508094223 | 45 | 207 | 2.0 | 2.0 | 0.00 | 0.00 | 0.00 | 45 | 1008.6 |
| 20260508093720 | 45 | 217 | 1.0 | 2.0 | 0.00 | 0.00 | 0.00 | 45 | 1008.6 |
| 20260508093218 | 45 | 220 | 2.0 | 5.0 | 0.00 | 0.00 | 0.00 | 45 | 1008.4 |
| 20260508092714 | 46 | 216 | 2.0 | 5.0 | 0.00 | 0.00 | 0.00 | 44 | 1008.5 |
| 20260508092213 | 45 | 214 | 2.0 | 3.0 | 0.00 | 0.00 | 0.00 | 45 | 1008.5 |
| 20260508091710 | 45 | 214 | 3.0 | 5.0 | 0.00 | 0.00 | 0.00 | 45 | 1008.5 |
| 20260508091207 | 45 | 254 | 3.0 | 5.0 | 0.00 | 0.00 | 0.00 | 45 | 1008.5 |
| 20260508090705 | 45 | 207 | 1.0 | 5.0 | 0.00 | 0.00 | 0.00 | 45 | 1008.5 |
| 20260508090202 | 45 | 213 | 1.0 | 2.0 | 0.00 | 0.00 | 0.00 | 45 | 1008.6 |
| 20260508085658 | 45 | 239 | 3.0 | 3.0 | 0.00 | 0.00 | 0.00 | 45 | 1008.3 |
| 20260508085155 | 45 | 208 | 1.0 | 2.0 | 0.00 | 0.00 | 0.00 | 45 | 1008.4 |
| 20260508084651 | 45 | 212 | 1.0 | 2.0 | 0.00 | 0.00 | 0.00 | 45 | 1008.7 |
| 20260508084149 | 45 | 217 | 2.0 | 2.0 | 0.00 | 0.00 | 0.00 | 46 | 1008.6 |
| 20260508083646 | 45 | 208 | 1.0 | 3.0 | 0.00 | 0.00 | 0.00 | 45 | 1008.5 |
| 20260508083144 | 46 | 198 | 2.0 | 3.0 | 0.00 | 0.00 | 0.00 | 45 | 1008.5 |
| 20260508082638 | 46 | 214 | 2.0 | 3.0 | 0.00 | 0.00 | 0.00 | 44 | 1008.6 |
| 20260508082136 | 46 | 212 | 3.0 | 5.0 | 0.00 | 0.00 | 0.00 | 43 | 1008.6 |
| 20260508081634 | 46 | 218 | 3.0 | 5.0 | 0.00 | 0.00 | 0.00 | 43 | 1008.5 |
| 20260508081130 | 46 | 246 | 4.0 | 8.0 | 0.00 | 0.00 | 0.00 | 43 | 1008.5 |
| 20260508080627 | 46 | 230 | 3.0 | 5.0 | 0.00 | 0.00 | 0.00 | 42 | 1008.6 |
| 20260508080126 | 46 | 241 | 5.0 | 6.0 | 0.00 | 0.00 | 0.00 | 42 | 1008.7 |
| 20260508075621 | 47 | 205 | 3.0 | 6.0 | 0.00 | 0.00 | 0.00 | 42 | 1008.7 |